User: anonymous   Login
Location: Norwich
(52.6280°N, 1.3030°E)
Time: 00:48:00
(UTC+01:00)
Language:

Meteor 1-22 Rocket - Orbit

View from above orbital plane
View from above orbital plane
View from above satellite
View from above satellite

Ground track
Ground track

The orbit data is extracted from the following two-line orbital elements,

1 08294U 75087B   16237.79654422 -.00000078  00000-0 -50189-4 0  9992
2 08294  81.2194 311.4346 0107646 158.2134 202.3667 14.08591050103126
Epoch (UTC): 24 August 2016 19:07:01
Eccentricity: 0.0107646
inclination: 81.2194°
perigee height: 786 km
apogee height: 942 km
right ascension of ascending node: 311.4346°
argument of perigee: 158.2134°
revolutions per day: 14.08591050
mean anomaly at epoch: 202.3667°
orbit number at epoch: 10312

The dashed part of the orbit path shows where the satellite is in the earth's shadow,  

DLR